CW6888 Weather Reports


Display with metric or nautical units.
time (UTC)temp
F
wind
direction
speed
MPH
gust
MPH
rain 1hr
in
rain 24hr
in
rain mn
in
humidity
%
barometer
mb
20260503212827 59 46 6.0 13.0 0.00 0.00 0.00 41 1013.8
20260503211819 58 74 5.0 17.0 0.00 0.00 0.00 40 1013.8
20260503210831 58 11 5.0 16.0 0.00 0.00 0.00 39 1013.9
20260503205822 59 40 6.0 16.0 0.00 0.00 0.00 40 1014.0
20260503204837 59 24 5.0 14.0 0.00 0.00 0.00 40 1013.8
20260503203819 59 5 6.0 13.0 0.00 0.00 0.00 39 1013.9
20260503202830 58 57 7.0 22.0 0.00 0.00 0.00 39 1013.9
20260503201822 58 28 9.0 17.0 0.00 0.00 0.00 38 1014.0
20260503200814 58 48 4.0 10.0 0.00 0.00 0.00 39 1014.2
20260503195820 58 141 5.0 9.0 0.00 0.00 0.00 39 1014.2
20260503194832 58 165 4.0 11.0 0.00 0.00 0.00 39 1014.5
20260503193823 58 34 4.0 12.0 0.00 0.00 0.00 41 1014.5
20260503192815 58 18 6.0 11.0 0.00 0.00 0.00 43 1014.6
20260503191847 58 126 3.0 13.0 0.00 0.00 0.00 43 1014.6
20260503190816 57 339 7.0 16.0 0.00 0.00 0.00 45 1014.7
20260503185815 56 360 8.0 19.0 0.00 0.00 0.00 41 1014.8
20260503184826 56 26 3.0 13.0 0.00 0.00 0.00 43 1014.9
20260503183815 56 69 5.0 14.0 0.00 0.00 0.00 42 1015.2
20260503182827 55 286 3.0 12.0 0.00 0.00 0.00 45 1015.1
20260503181821 55 17 7.0 18.0 0.00 0.00 0.00 44 1015.4
20260503180834 55 55 5.0 11.0 0.00 0.00 0.00 44 1015.2
20260503175837 55 51 3.0 9.0 0.00 0.00 0.00 48 1015.2
20260503174827 53 23 5.0 12.0 0.00 0.00 0.00 46 1015.3
20260503173820 53 55 4.0 14.0 0.00 0.00 0.00 45 1015.6
20260503172831 53 338 5.0 19.0 0.00 0.00 0.00 44 1015.6
20260503171814 53 33 8.0 16.0 0.00 0.00 0.00 46 1015.6
20260503170836 53 348 8.0 14.0 0.00 0.00 0.00 45 1015.7
20260503150817 48 66 4.0 15.0 0.00 0.00 0.00 52 1016.2
20260503130843 43 35 8.0 15.0 0.00 0.00 0.00 64 1016.3
20260503080821 41 34 2.0 5.0 0.00 0.00 0.00 73 1013.5
20260503072823 41 346 3.0 8.0 0.00 0.00 0.00 72 1013.3
20260503071859 41 329 5.0 9.0 0.00 0.00 0.00 72 1013.1
20260503070850 41 5 4.0 12.0 0.00 0.00 0.00 73 1013.1
20260503054828 41 34 3.0 7.0 0.00 0.01 0.00 76 1013.1
20260503053842 41 360 2.0 4.0 0.00 0.01 0.00 76 1013.2
20260503052824 42 41 3.0 8.0 0.00 0.01 0.00 76 1013.2
20260503051817 42 23 2.0 4.0 0.00 0.01 0.00 75 1013.2
20260503050858 42 5 0.0 3.0 0.00 0.01 0.00 75 1013.3
20260503045823 42 360 1.0 3.0 0.00 0.01 0.00 75 1013.2
20260503044835 42 5 2.0 6.0 0.00 0.01 0.00 74 1013.1
20260503043818 43 5 1.0 5.0 0.00 0.01 0.00 73 1013.3
20260503042830 43 45 3.0 5.0 0.00 0.01 0.00 73 1013.4
20260503041837 43 5 4.0 8.0 0.00 0.01 0.00 72 1013.5
20260503040824 44 19 4.0 6.0 0.00 0.01 0.00 70 1013.7
20260503035839 44 360 2.0 5.0 0.00 0.02 0.01 69 1013.9
20260503034821 45 32 3.0 8.0 0.00 0.02 0.01 68 1014.0
20260503033841 45 28 3.0 10.0 0.00 0.02 0.01 68 1014.0
20260503032824 45 5 3.0 10.0 0.00 0.02 0.01 67 1014.1
20260503031836 46 23 3.0 7.0 0.00 0.02 0.01 67 1014.1
20260503030826 46 53 3.0 6.0 0.00 0.02 0.01 67 1014.0
20260503025840 46 26 2.0 6.0 0.00 0.02 0.01 67 1014.1
20260503024826 47 46 3.0 9.0 0.00 0.02 0.01 66 1014.1
20260503023838 47 38 4.0 8.0 0.00 0.02 0.01 66 1014.2
20260503022838 47 32 4.0 11.0 0.00 0.02 0.01 65 1014.1
20260503021821 48 17 5.0 12.0 0.00 0.02 0.01 64 1014.1
20260503020814 48 28 5.0 12.0 0.00 0.02 0.01 63 1014.2
20260503015820 48 42 4.0 17.0 0.00 0.02 0.01 63 1014.2
20260503014832 49 19 4.0 9.0 0.00 0.02 0.01 63 1014.3
20260503013824 49 360 3.0 11.0 0.00 0.02 0.01 62 1014.2
20260503012833 49 20 5.0 12.0 0.00 0.02 0.01 60 1014.1
20260503011826 50 32 6.0 14.0 0.00 0.02 0.01 58 1014.0
20260503010820 50 48 3.0 10.0 0.00 0.02 0.01 58 1013.7
20260503005829 50 25 5.0 11.0 0.00 0.02 0.01 58 1013.6
20260503004825 50 342 2.0 5.0 0.00 0.02 0.01 57 1013.3
20260503003834 50 19 2.0 4.0 0.00 0.02 0.01 56 1013.1
20260503002826 51 351 2.0 4.0 0.00 0.02 0.01 55 1013.1
20260503001838 51 5 3.0 6.0 0.00 0.02 0.01 55 1012.9
20260503000819 51 346 5.0 9.0 0.00 0.02 0.01 54 1012.8
20260502235834 52 355 3.0 7.0 0.00 0.02 0.01 53 1012.9
20260502234817 52 9 3.0 6.0 0.00 0.02 0.01 54 1012.9
20260502233840 52 350 2.0 6.0 0.00 0.02 0.01 54 1012.8
20260502232823 52 346 3.0 6.0 0.00 0.02 0.01 55 1012.7
20260502231815 52 360 3.0 9.0 0.00 0.02 0.01 55 1012.7
20260502230827 52 46 4.0 6.0 0.00 0.02 0.01 54 1012.5
20260502225832 52 9 3.0 7.0 0.00 0.02 0.01 54 1012.5
20260502224825 53 9 3.0 6.0 0.00 0.02 0.01 53 1012.5
20260502223816 53 28 5.0 12.0 0.00 0.02 0.01 51 1012.5
20260502222850 53 344 4.0 10.0 0.00 0.02 0.01 50 1012.4
20260502221826 53 28 4.0 8.0 0.00 0.02 0.01 51 1012.5
20260502220844 53 46 4.0 12.0 0.00 0.02 0.01 49 1012.5
20260502215832 54 189 3.0 8.0 0.00 0.02 0.01 50 1012.5
20260502214828 54 180 3.0 14.0 0.00 0.02 0.01 49 1012.5
20260502213820 55 265 6.0 10.0 0.00 0.02 0.01 48 1012.4